Location: Hurstbourne Priors
(51.2000°N, 1.3667°W)
Time: 23:29:09
(UTC+00:00)

RESURS DK-1 - Pass Details

Date: 09 April 2020
Orbit: 557 x 561 km, 69.9° (Epoch: 27 May)

Event Time Altitude Azimuth Distance (km) Brightness Sun altitude
Rises 22:20:53 0° 317° (NW) 2,761 7.1 -26.5°
Reaches altitude 10° 22:23:32 10° 301° (WNW) 1,859 5.7 -26.7°
Enters shadow 22:26:10 20° 262° (W) 1,341 4.4 -26.9°
